Regional Weather Roundup
Issued by NWS

Home | Current Version | Previous Version | Graphics & Text | Print | Product List | Glossary On
Versions: 1 2 3 4 5 6 7 8 9 10 11 12 13 14 15 16 17 18 19 20 21 22 23 24 25 26 27 28 29 30 31 32 33 34 35 36 37 38 39 40 41 42 43 44 45 46 47 48 49 50
000
ASUS43 KTOP 190059
RWRKS

WEATHER ROUNDUP FOR KANSAS
NATIONAL WEATHER SERVICE GOODLAND KS
800 PM CDT WED OCT 18 2017

NOTE:  "FAIR" INDICATES FEW OR NO CLOUDS BELOW 12,000 FEET WITH NO
SIGNIFICANT WEATHER AND/OR OBSTRUCTIONS TO VISIBILITY.

KSZ001>006-013>018-027>032-041>047-190200-
NORTHWEST KANSAS

CITY           SKY/WX    TMP DP  RH WIND       PRES   REMARKS
GOODLAND       CLEAR     52  34  50 E7        30.10R
HAYS           CLEAR     63  39  41 NE8       30.02R
HILL CITY      CLEAR     62  39  42 N13       30.06R
RUSSELL        CLEAR     69  42  37 NE7       30.01R
$$

KSZ061>065-074>080-084>089-190200-
SOUTHWEST KANSAS

CITY           SKY/WX    TMP DP  RH WIND       PRES   REMARKS
DODGE CITY     CLOUDY    64  46  52 S6        30.03R
ELKHART          N/A     64  40  41 SE8         N/A
GARDEN CITY    CLOUDY    65  38  36 E8        30.04R
GREAT BEND     CLOUDY    62  48  60 SE6       30.01R
LIBERAL        CLOUDY    70  48  45 E9        30.04R
$$

KSZ066>073-081>083-090>101-190200-
SOUTHEAST KANSAS

CITY           SKY/WX    TMP DP  RH WIND       PRES   REMARKS
CHANUTE        CLEAR     64  50  60 S12       30.04S
COFFEYVILLE    CLEAR     64  50  60 SE3       30.06R
HUTCHINSON     CLOUDY    64  51  62 SE3       30.01R
MEDICINE LODGE   N/A     70  49  47 SE8       30.01R
NEWTON         CLOUDY    64  48  56 S8        30.03R
PARSONS        CLEAR     60  50  69 VRB3      30.07R
WICHITA INTL   PTCLDY    62  50  64 S10       30.01R
WICHITA JABRA  CLEAR     64  50  60 S9        30.02R
WICHITA MCCONL CLEAR     64  48  54 S9        30.02R
WINFIELD       CLOUDY    65  51  60 S6        30.04R
$$

KSZ007>012-019>026-033>040-048>060-102>105-190200-
NORTHEAST KANSAS

CITY           SKY/WX    TMP DP  RH WIND       PRES   REMARKS
CONCORDIA      CLEAR     63  52  67 CALM      30.01R
EMPORIA        PTCLDY    63  49  60 S8        30.02R
LAWRENCE       CLEAR     59  51  75 E7        30.02R
MANHATTAN      CLEAR     57  51  80 CALM      30.00R
OLATHE IND     PTCLDY    60  50  69 S7        30.03R
OLATHE EXE     PTCLDY    61  50  67 S7        30.03R
SALINA         CLOUDY    63  54  72 S7        30.00R
TOPEKA BILLARD CLEAR     63  51  65 CALM      30.01R
TOPEKA FORBES  CLOUDY    63  51  65 SE6       30.01R
$$



USA.gov is the U.S. government's official web portal to all federal, state and local government web resources and services.